Temperature
11 11 11 11 11 11 10 10 10 10 10 10 10 10 10 11 11 10 11 11 11 11 11 11 11 11 11 11 11 11 11 11 11 11 11 10 11 10
10 10 10 10 10 10 10 10 10 10 10 10 10 10 10 10 10 10 10 10 11 11 11 11 11 11 11 11 11 11 11 11 11 11 10 10 10 10
10 10 10 10 10 10 10 10 10 10 10 10 10 10 10 10 10 10 10 10 10 10 10 11 11 11 11 10 10 11 10 10 10 10 10 10 10 10
10 10 10 10 10 9 9 9 9 9 9 9 10 9 10 10 10 10 10 10 10 10 10 10 10 10 10 10 10 10 10 10 10 10 10 10 10 10
10 9 9 9 9 9 9 9 9 9 9 9 9 9 9 9 9 9 10 10 10 10 10 10 10 10 10 10 10 10 10 10 10 10 10 10 9 9
9 9 9 9 9 9 9 9 9 9 9 9 9 9 9 9 9 9 9 9 9 10 10 10 10 10 10 10 10 9 9 9 10 10 9 9 9 9
9 9 9 9 9 9 9 9 9 9 9 9 8 8 9 9 9 9 9 9 9 9 9 9 9 9 9 9 9 9 9 9 9 9 9 9 9 9
9 9 9 9 8 8 8 8 8 8 8 8 8 8 8 8 8 8 8 8 8 9 9 9 9 9 9 9 9 9 9 9 9 9 9 9 9 9
8 8 8 8 8 8 8 8 8 8 8 8 8 8 8 8 8 8 8 8 8 8 8 9 9 9 9 9 9 9 9 8 8 8 8 8 8 8
8 8 8 8 8 7 7 7 7 7 7 7 7 7 7 7 7 7 7 7 7 8 8 8 8 8 8 8 8 8 8 8 8 8 8 8 8 8
8 7 7 7 7 7 7 7 7 7 7 7 7 7 7 7 7 7 7 7 7 7 7 7 8 8 8 8 8 8 8 8 8 8 8 8 8 8
7 7 7 7 7 7 6 6 7 7 6 6 6 6 6 6 6 6 6 6 6 7 7 7 7 7 7 7 7 7 7 7 8 8 7 7 7 7
7 7 7 7 6 6 6 6 6 6 6 6 6 6 6 6 6 6 6 6 6 6 6 6 6 6 6 6 7 7 7 7 7 7 7 7 7 7
6 6 6 6 6 6 6 6 6 6 6 6 6 5 5 6 6 5 5 5 5 5 5 5 6 6 6 6 6 6 6 6 6 7 7 7 6 6
6 6 6 6 6 6 5 5 5 5 5 5 5 5 5 5 5 5 5 5 5 5 5 5 5 5 5 5 5 5 6 6 6 6 6 6 6 6
6 6 5 5 5 5 5 5 5 5 5 5 5 5 5 5 5 5 5 5 5 5 5 5 5 5 5 5 5 5 5 5 5 5 5 6 6 6
5 5 5 5 5 5 5 4 4 4 4 4 4 4 4 4 4 4 4 4 4 4 4 5 5 5 5 5 5 5 5 5 5 5 5 5 5 5
5 5 5 4 4 4 4 4 4 4 4 4 4 4 4 4 4 4 4 3 3 4 4 4 4 4 4 4 4 4 4 4 4 4 4 5 5 5
4 4 4 4 4 4 4 4 3 3 3 3 3 3 3 3 3 3 3 3 3 3 3 3 3 3 3 3 4 4 4 4 4 4 4 4 4 4
4 4 4 3 3 3 3 3 3 3 3 3 3 3 2 2 2 2 2 2 2 2 2 3 3 3 3 3 3 3 3 3 3 3 4 4 4 4
3 3 3 3 3 3 3 3 2 2 2 2 2 2 2 2 2 2 2 2 2 2 2 2 2 2 2 2 2 3 3 3 3 3 3 3 3 3
3 3 3 3 2 2 2 2 2 2 2 2 2 2 1 1 1 1 1 1 1 1 1 2 2 2 2 2 2 2 2 3 3 3 3 2 2 2
3 2 2 2 2 2 2 2 2 2 1 1 1 1 1 1 1 1 1 1 1 1 1 1 1 1 1 1 1 1 2 2 2 2 2 2 2 2
Wind_Speed
1 1 0 0 1 1 2 3 3 1 3 3 2 2 3 3 3 3 3 4 4 4 4 3 2 1 1 1 2 2 1 0 1 1 2 3 3 4
0 1 1 0 0 0 1 1 2 2 2 2 3 3 2 3 3 3 3 4 4 4 3 3 1 1 1 2 2 2 1 1 1 2 2 3 4 4
1 1 1 1 1 1 0 0 1 1 2 3 2 2 2 2 3 3 2 2 3 3 2 1 1 0 1 2 2 1 0 2 3 3 3 3 4 4
0 0 0 0 0 0 0 0 1 2 2 3 2 2 2 2 1 1 2 2 2 2 2 1 0 0 1 1 1 0 1 2 3 3 3 3 4 3
1 1 1 1 1 1 0 1 1 1 1 2 2 2 1 1 1 1 2 2 2 2 2 1 1 0 1 1 1 0 1 1 2 2 3 3 3 3
1 1 2 2 3 2 1 1 1 1 0 1 1 1 1 1 0 0 1 2 1 1 2 1 1 0 1 2 1 1 1 2 2 3 3 3 3 3
1 1 2 2 2 2 2 2 1 1 0 1 1 1 1 0 1 1 1 1 1 1 1 1 1 0 1 2 2 3 2 2 3 3 3 3 4 4
1 2 2 2 2 3 3 3 2 2 2 2 2 2 3 2 1 1 1 1 1 1 0 1 0 0 2 2 3 3 2 2 3 3 4 4 4 5
1 1 1 2 2 2 3 2 2 3 3 3 3 3 3 3 2 2 2 2 2 1 1 1 0 1 2 3 3 3 3 2 3 4 5 5 5 5
2 2 2 2 2 1 1 2 2 3 3 2 3 4 3 4 5 3 3 1 1 1 1 2 1 1 2 3 3 4 3 3 4 4 5 5 6 6
2 2 2 2 3 1 1 1 3 4 4 4 3 3 2 2 3 3 2 1 1 1 1 2 1 1 1 1 2 2 3 3 3 3 4 4 5 5
2 2 3 3 3 2 2 2 3 4 2 2 2 2 1 1 3 3 3 2 1 2 1 1 1 0 1 1 1 2 2 2 2 1 2 2 3 3
2 2 3 4 3 3 3 3 4 3 1 1 1 1 2 1 0 1 2 3 2 2 2 2 1 1 1 1 1 2 2 1 1 1 1 2 2 2
3 3 3 4 4 3 2 2 3 1 0 0 0 1 1 1 1 1 2 2 3 3 3 2 2 2 2 1 1 1 2 2 1 1 1 2 2 3
3 3 3 3 3 2 3 2 1 0 1 1 1 2 2 2 1 0 1 1 2 2 2 3 2 2 2 2 2 1 1 2 1 1 1 2 2 2
2 2 3 2 1 1 2 2 1 1 1 2 2 2 1 0 1 0 0 0 1 1 2 2 2 2 2 2 2 2 1 1 1 1 1 2 3 3
1 0 0 0 1 1 1 1 1 1 1 1 1 1 1 1 1 0 0 0 1 1 1 2 2 1 0 1 1 2 1 1 2 1 1 2 3 4
2 1 1 2 2 2 2 2 1 2 2 1 1 1 1 1 1 0 0 1 1 1 1 1 1 2 2 2 2 2 2 2 2 2 1 1 3 4
1 1 2 2 3 3 2 2 2 2 2 2 2 2 1 1 1 1 1 1 1 1 1 1 0 0 1 3 3 2 2 2 2 2 2 2 3 4
1 2 3 3 3 3 3 2 2 2 1 2 2 2 2 1 1 1 1 1 1 1 1 1 1 1 2 3 2 3 4 3 2 3 3 3 3 4
2 2 3 3 3 3 3 2 2 2 2 2 2 2 2 2 2 2 2 1 1 1 2 2 3 3 1 1 1 3 3 4 4 3 3 2 3 3
3 3 3 3 3 3 2 2 2 2 2 2 2 2 2 2 2 2 2 2 1 1 2 2 2 1 1 1 2 3 4 5 5 4 3 3 2 2
4 3 3 3 3 2 2 3 3 3 2 2 2 2 2 2 2 2 2 2 1 1 1 1 2 1 1 2 2 3 4 4 4 4 4 5 5 6
Wind_Direction
87 112 133 238 176 184 168 169 168 226 272 272 286 308 323 328 329 343 334 325 330 329 323 324 330 350 351 339 331 328 343 342 209 204 170 159 155 154
63 85 55 5 38 113 177 183 181 191 239 258 262 287 307 323 324 328 312 311 317 318 313 302 284 276 306 304 320 341 25 130 149 179 175 157 155 147
30 80 15 35 50 21 61 183 193 176 227 277 282 298 306 313 333 338 329 322 314 307 311 320 324 278 259 276 307 345 304 134 143 153 162 164 163 157
317 86 324 358 24 6 48 313 245 218 200 246 286 299 289 287 326 342 343 337 323 333 351 4 9 198 211 216 265 313 273 166 158 161 166 177 173 170
212 206 237 193 247 273 265 295 276 270 210 209 263 282 279 298 5 356 4 354 338 346 352 314 276 186 200 197 222 271 237 188 171 173 189 194 185 184
226 222 226 219 224 222 229 245 265 282 278 211 261 277 265 281 135 215 347 359 344 351 344 321 287 268 221 232 235 228 214 196 185 179 187 194 194 200
283 274 259 252 245 240 245 226 211 231 256 251 271 286 285 230 220 204 224 335 327 351 3 341 346 358 267 250 238 225 215 202 198 193 187 197 201 206
249 291 291 288 288 285 283 248 216 213 226 220 239 251 260 234 198 196 168 82 296 311 48 309 43 270 268 256 235 226 223 217 214 211 205 204 206 211
208 252 300 313 315 298 299 297 282 278 255 211 221 239 238 222 187 194 197 189 225 252 131 255 257 253 271 268 247 229 234 238 230 226 219 213 214 218
214 217 232 282 287 252 287 317 302 296 285 252 228 239 237 214 199 195 191 192 283 276 164 205 238 258 297 286 265 243 247 247 238 226 219 214 217 222
250 247 237 247 281 261 187 274 296 297 291 281 280 274 270 212 161 124 115 106 277 268 185 185 217 292 309 309 306 279 256 244 236 235 222 214 216 222
259 269 269 262 273 251 200 221 265 277 299 321 333 346 352 186 164 161 171 175 205 251 221 182 173 99 325 321 332 315 285 257 249 243 226 221 219 222
234 256 265 274 278 267 236 222 254 265 258 262 330 3 16 33 145 202 190 188 199 235 215 170 168 164 183 297 324 323 300 280 279 270 257 255 246 226
229 241 253 265 268 270 260 271 276 277 110 108 56 317 306 288 271 246 241 233 227 238 235 193 182 187 183 215 279 312 317 301 268 261 276 280 275 264
228 240 259 272 268 272 277 273 268 141 140 194 242 261 261 257 265 292 304 314 320 301 264 237 213 203 193 205 232 260 298 307 275 249 269 270 263 264
256 257 258 262 273 286 286 275 251 189 194 227 248 262 292 292 248 228 241 231 356 317 321 296 252 195 206 224 217 238 258 265 300 292 291 284 280 265
202 109 14 337 326 321 307 288 270 248 234 239 231 253 263 253 266 280 216 170 230 283 329 350 358 5 233 210 224 248 255 271 279 289 305 309 288 279
153 167 216 232 240 255 253 251 245 246 246 231 224 218 226 226 246 288 293 245 260 271 284 315 15 27 14 354 253 240 260 270 291 299 270 274 293 298
154 200 225 230 240 251 243 236 239 243 233 215 220 225 219 216 210 225 248 285 288 283 299 317 7 72 305 304 314 271 248 274 289 303 290 264 273 286
196 213 230 237 237 244 244 238 240 240 226 218 214 211 201 204 210 228 230 242 258 293 323 340 318 278 250 264 281 308 283 262 265 275 283 283 286 293
225 228 230 233 234 237 241 233 223 221 224 220 218 214 203 199 213 224 227 240 256 271 280 288 285 296 298 355 313 306 316 303 275 263 269 281 291 299
232 234 237 238 234 232 234 224 217 215 220 224 225 226 216 207 213 217 215 221 236 245 272 297 321 338 337 275 284 300 316 328 325 306 289 262 249 255
235 234 233 236 238 234 231 218 215 219 219 222 222 218 210 218 220 211 208 211 220 241 276 305 336 343 317 295 289 303 312 320 328 334 320 315 287 274
Height
1523 1524 1524 1524 1524 1524 1524 1524 1524 1523 1522 1522 1522 1522 1521 1521 1520 1520 1520 1520 1520 1519 1519 1519 1519 1519 1519 1519 1519 1518 1517 1515 1515 1515 1516 1517 1520 1523
1521 1521 1521 1522 1522 1522 1522 1522 1522 1522 1520 1520 1519 1519 1519 1518 1517 1517 1517 1517 1517 1517 1517 1517 1517 1517 1517 1517 1516 1516 1514 1513 1513 1513 1514 1516 1518 1521
1520 1519 1519 1519 1519 1519 1519 1519 1519 1519 1518 1517 1517 1516 1516 1515 1515 1514 1514 1514 1515 1515 1515 1515 1514 1514 1515 1515 1515 1514 1513 1512 1511 1512 1514 1516 1518 1520
1518 1517 1517 1517 1517 1517 1517 1517 1517 1516 1516 1515 1514 1513 1513 1512 1512 1512 1512 1512 1512 1513 1513 1512 1512 1513 1513 1513 1513 1513 1513 1512 1512 1513 1514 1516 1518 1519
1516 1516 1515 1515 1515 1515 1515 1515 1514 1514 1513 1512 1511 1510 1510 1510 1510 1510 1510 1510 1510 1511 1511 1511 1511 1511 1511 1511 1512 1512 1512 1512 1512 1513 1514 1515 1517 1518
1514 1514 1513 1513 1513 1512 1512 1512 1512 1511 1510 1509 1508 1508 1507 1507 1507 1507 1507 1508 1508 1508 1509 1509 1509 1509 1509 1509 1510 1510 1511 1511 1511 1512 1513 1514 1515 1516
1512 1512 1511 1511 1510 1510 1509 1509 1509 1508 1507 1506 1506 1505 1505 1505 1505 1505 1505 1505 1505 1506 1506 1506 1506 1506 1507 1507 1508 1508 1509 1509 1510 1510 1511 1512 1513 1514
1509 1509 1509 1508 1508 1507 1507 1506 1506 1505 1504 1504 1503 1503 1502 1502 1503 1503 1503 1502 1503 1504 1503 1504 1504 1504 1505 1505 1505 1506 1506 1507 1507 1508 1509 1510 1511 1511
1506 1506 1506 1505 1505 1504 1504 1503 1503 1502 1502 1501 1501 1500 1500 1500 1500 1500 1500 1500 1500 1501 1501 1500 1502 1501 1502 1502 1503 1503 1503 1504 1504 1505 1506 1507 1508 1508
1503 1503 1503 1502 1502 1501 1501 1500 1500 1499 1499 1498 1498 1497 1497 1497 1497 1498 1498 1498 1499 1499 1499 1498 1498 1499 1499 1499 1500 1500 1501 1501 1502 1502 1503 1503 1504 1505
1500 1500 1499 1499 1499 1498 1498 1497 1496 1496 1496 1495 1495 1495 1494 1494 1494 1494 1495 1495 1495 1496 1496 1496 1495 1496 1496 1496 1497 1497 1498 1498 1499 1499 1499 1500 1501 1501
1497 1497 1496 1496 1495 1495 1494 1494 1493 1493 1493 1492 1492 1492 1491 1491 1491 1491 1492 1492 1492 1493 1493 1494 1493 1493 1493 1494 1494 1495 1495 1495 1496 1496 1497 1497 1497 1498
1493 1493 1493 1493 1492 1492 1491 1490 1490 1490 1489 1489 1489 1489 1488 1488 1488 1489 1489 1490 1490 1490 1491 1491 1491 1491 1491 1491 1491 1492 1492 1492 1492 1493 1493 1494 1494 1495
1489 1489 1489 1489 1488 1488 1488 1487 1487 1487 1486 1485 1485 1485 1485 1486 1486 1486 1486 1486 1487 1487 1488 1488 1488 1488 1488 1488 1488 1489 1489 1489 1489 1489 1490 1490 1491 1491
1485 1485 1485 1485 1485 1484 1484 1484 1484 1483 1483 1482 1482 1482 1483 1483 1483 1483 1483 1483 1484 1484 1484 1484 1485 1485 1486 1485 1485 1486 1486 1486 1487 1487 1487 1487 1487 1488
1481 1481 1481 1481 1481 1480 1480 1480 1480 1479 1479 1479 1479 1480 1480 1480 1480 1480 1480 1480 1480 1480 1481 1481 1482 1482 1482 1483 1483 1483 1483 1483 1483 1483 1483 1483 1484 1484
1477 1477 1477 1477 1476 1476 1476 1476 1476 1476 1476 1476 1476 1476 1476 1476 1477 1477 1477 1477 1477 1477 1478 1478 1478 1479 1479 1480 1480 1480 1480 1480 1480 1480 1479 1479 1479 1480
1473 1473 1473 1473 1472 1472 1472 1472 1472 1472 1472 1472 1472 1472 1473 1473 1473 1474 1474 1474 1474 1475 1475 1475 1475 1476 1476 1476 1477 1477 1477 1477 1477 1477 1476 1475 1475 1476
1469 1468 1468 1468 1468 1468 1468 1468 1468 1468 1469 1469 1469 1469 1469 1470 1470 1470 1471 1471 1471 1472 1473 1473 1473 1473 1473 1473 1473 1475 1474 1474 1473 1473 1473 1472 1471 1471
1464 1464 1464 1464 1464 1464 1464 1464 1465 1465 1465 1465 1466 1466 1466 1466 1467 1467 1468 1468 1469 1469 1470 1470 1471 1471 1471 1471 1471 1471 1472 1471 1470 1469 1469 1469 1468 1468
1460 1460 1460 1461 1460 1461 1461 1461 1461 1461 1462 1462 1462 1463 1463 1463 1464 1464 1465 1466 1466 1467 1467 1467 1468 1469 1469 1468 1468 1467 1468 1468 1467 1467 1466 1465 1464 1463
1456 1456 1456 1457 1457 1457 1457 1457 1457 1458 1458 1459 1459 1460 1460 1460 1461 1461 1462 1463 1463 1464 1464 1465 1466 1466 1466 1465 1464 1464 1464 1464 1464 1463 1463 1463 1461 1460
1453 1452 1453 1453 1453 1453 1454 1454 1454 1454 1455 1455 1456 1456 1457 1458 1458 1459 1459 1460 1461 1461 1462 1462 1462 1462 1463 1463 1462 1461 1461 1461 1460 1459 1459 1459 1459 1458